Location: Berlise
(49.6641°N, 4.1077°E)
Time: 02:27:14
(UTC+00:00)

Cosmos 2292 Rocket - Pass Details

Date: 27 January 2021
Orbit: 380 x 1450 km, 83.0° (Epoch: 24 February)

Event Time Altitude Azimuth Distance (km) Brightness Sun altitude
Exits shadow 06:24:13 - 342° (NNW) 2,023 5.9 -9.5°
Reaches altitude 10° 06:25:36 10° 335° (NNW) 1,434 5.1 -9.3°
Maximum altitude 06:28:26 38° 265° (W) 652 3.3 -8.9°
Drops below altitude 10° 06:31:37 10° 196° (SSW) 1,618 5.8 -8.4°
Sets 06:33:58 0° 188° (S) 2,619 6.9 -8.0°
